Location: Girdwood
(60.9430°N, 149.1660°W)
Time: 15:27:05
(UTC-08:00)

Amateur Radio Satellites - All Passes

Search period start: 22 July 2014 14:57
Search period end: 23 July 2014 14:57
Location: Girdwood, 60.9430°N, 149.1660°W

Satellite Date Start Highest point End Downlink Frequencies (MHz)
Time Altitude Azimuth
AO-7 22 Jul 15:08:09 15:16:01 48° 44° (NE) 15:23:53 29.400 - 29.500 MHz
AO-Echo 22 Jul 15:08:42 15:14:01 69° 256° (WSW) 15:19:22 ?
RS-15 22 Jul 15:21:44 15:30:55 33° 109° (ESE) 15:40:01 29.354 - 29.394 USB, Beacon 29.352 USB
Uosat F 22 Jul 15:21:56 15:26:18 30° 51° (NE) 15:30:41 435.120 FM
JAS-1B 22 Jul 15:26:34 15:35:39 87° 250° (WSW) 15:45:41 435.800 - 435.900 CW/SSB
FUNcube-1 22 Jul 15:31:28 15:32:51 12° 322° (NW) 15:34:15 145.950 - 145.970 MHz USB
Oscar 19 22 Jul 15:37:08 15:41:31 28° 269° (W) 15:45:56 437.125 CW, 437.150 USB
SO-50 22 Jul 15:45:11 15:48:37 22° 122° (ESE) 15:52:07 436.795 FM
TMSAT-1 22 Jul 15:49:05 15:54:25 86° 252° (WSW) 15:59:47 436.925 FM
Saudisat 1A 22 Jul 15:52:11 15:56:34 57° 10° (N) 16:00:57 436.775 MHz
HO-68 22 Jul 16:02:55 16:07:35 19° 349° (NNW) 16:12:15 435.675 MHz FM
Oscar 16 22 Jul 16:05:31 16:09:06 19° 276° (W) 16:12:41 437.025 USB, Beacon 2401.1428
Gurwin Techsat 1B 22 Jul 16:09:09 16:14:22 54° 259° (W) 16:19:37 435.225 FM
ITAMSAT 1 22 Jul 16:10:13 16:14:45 29° 268° (W) 16:19:18 435.822 SSB
JAS-2 22 Jul 16:17:46 16:23:38 25° 36° (NE) 16:29:08 435.800 - 435.900 CW/SSB, 435.910 FM
AO-27 22 Jul 16:28:14 16:32:20 23° 272° (W) 16:36:27 436.795 MHz FM
Uribyol 2 22 Jul 16:32:31 16:36:24 21° 274° (W) 16:40:19 436.500 FM
UOSAT-12 22 Jul 16:48:12 16:49:06 11° 110° (ESE) 16:50:01 437.025 FM, 437.400 FM
KITSAT 1 22 Jul 16:49:22 16:57:26 71° 225° (SW) 17:05:26 435.175 FM
AO-Echo 22 Jul 16:50:12 16:53:46 18° 278° (W) 16:57:23 ?
Uosat F 22 Jul 16:59:41 17:04:46 78° 253° (WSW) 17:09:52 435.120 FM
AO-7 22 Jul 17:00:07 17:08:31 77° 248° (WSW) 17:16:57 29.400 - 29.500 MHz
OPAL 22 Jul 17:16:35 17:20:38 24° 93° (E) 17:24:43 ?
JAS-1B 22 Jul 17:19:16 17:27:25 36° 276° (W) 17:36:19 435.800 - 435.900 CW/SSB
SO-50 22 Jul 17:24:03 17:28:34 70° 144° (SE) 17:33:12 436.795 FM
RS-15 22 Jul 17:30:43 17:41:37 73° 137° (SE) 17:52:31 29.354 - 29.394 USB, Beacon 29.352 USB
TMSAT-1 22 Jul 17:31:02 17:35:08 22° 274° (W) 17:39:16 436.925 FM
Saudisat 1A 22 Jul 17:31:57 17:36:24 77° 213° (SSW) 17:40:49 436.775 MHz
Hamsat 22 Jul 17:32:59 17:36:37 29° 57° (ENE) 17:40:16 145.90 MHz
HO-68 22 Jul 17:48:15 17:53:04 20° 15° (NNE) 17:57:52 435.675 MHz FM
Gurwin Techsat 1B 22 Jul 17:52:58 17:55:37 14° 281° (WNW) 17:58:16 435.225 FM
JAS-2 22 Jul 18:00:00 18:07:32 56° 59° (ENE) 18:14:31 435.800 - 435.900 CW/SSB, 435.910 FM
SO-67 22 Jul 18:03:04 18:04:35 13° 48° (NE) 18:06:07 435.3500 MHz FM
UOSAT-12 22 Jul 18:23:47 18:28:06 39° 132° (SE) 18:32:30 437.025 FM, 437.400 FM
Uosat F 22 Jul 18:40:47 18:44:24 19° 274° (W) 18:48:02 435.120 FM
KITSAT 1 22 Jul 18:45:10 18:51:42 28° 250° (WSW) 18:58:13 435.175 FM
OPAL 22 Jul 18:55:07 19:00:10 86° 294° (WNW) 19:05:14 ?
AO-7 22 Jul 18:55:46 19:02:43 28° 273° (W) 19:09:42 29.400 - 29.500 MHz
SO-50 22 Jul 19:04:46 19:09:19 60° 347° (NNW) 19:13:58 436.795 FM
Hamsat 22 Jul 19:08:16 19:12:24 59° 258° (WSW) 19:16:35 145.90 MHz
Saudisat 1A 22 Jul 19:11:55 19:15:30 24° 235° (SW) 19:19:04 436.775 MHz
JAS-1B 22 Jul 19:17:50 19:21:29 13° 304° (WNW) 19:25:14 435.800 - 435.900 CW/SSB
STRAND 1 22 Jul 19:28:28 19:31:51 17° 83° (E) 19:35:12 ?
HO-68 22 Jul 19:32:45 19:39:01 34° 40° (NE) 19:45:16 435.675 MHz FM
SO-67 22 Jul 19:33:35 19:37:01 57° 69° (ENE) 19:40:28 435.3500 MHz FM
RS-15 22 Jul 19:43:14 19:54:14 76° 347° (NNW) 20:05:20 29.354 - 29.394 USB, Beacon 29.352 USB
JAS-2 22 Jul 19:44:56 19:52:38 58° 260° (W) 19:59:50 435.800 - 435.900 CW/SSB, 435.910 FM
UOSAT-12 22 Jul 20:03:21 20:08:04 81° 335° (NNW) 20:12:51 437.025 FM, 437.400 FM
Oscar 11 22 Jul 20:11:21 20:13:33 14° 41° (NE) 20:15:45 145.825 FM, Beacon 2401.500 USB
OPAL 22 Jul 20:34:28 20:38:35 27° 316° (NW) 20:42:44 ?
SO-50 22 Jul 20:45:48 20:50:24 59° 11° (N) 20:55:05 436.795 FM
Hamsat 22 Jul 20:47:40 20:49:20 12° 279° (W) 20:51:00 145.90 MHz
STRAND 1 22 Jul 21:06:52 21:12:02 69° 105° (ESE) 21:17:08 ?
SO-67 22 Jul 21:07:42 21:10:25 21° 269° (W) 21:13:09 435.3500 MHz FM
HO-68 22 Jul 21:18:52 21:26:03 82° 64° (ENE) 21:33:16 435.675 MHz FM
JAS-2 22 Jul 21:33:52 21:39:10 20° 283° (WNW) 21:44:17 435.800 - 435.900 CW/SSB, 435.910 FM
UOSAT-12 22 Jul 21:43:58 21:48:38 55° 358° (N) 21:53:20 437.025 FM, 437.400 FM
Oscar 11 22 Jul 21:44:44 21:48:52 46° 63° (ENE) 21:53:01 145.825 FM, Beacon 2401.500 USB
FUNcube-1 22 Jul 21:47:50 21:51:28 27° 55° (NE) 21:55:03 145.950 - 145.970 MHz USB
RS-15 22 Jul 21:56:32 22:07:33 80° 19° (NNE) 22:18:45 29.354 - 29.394 USB, Beacon 29.352 USB
OPAL 22 Jul 22:14:11 22:16:07 12° 339° (NNW) 22:18:03 ?
SO-50 22 Jul 22:26:32 22:31:12 76° 214° (SW) 22:35:58 436.795 FM
STRAND 1 22 Jul 22:46:24 22:50:59 34° 307° (NW) 22:55:32 ?
HO-68 22 Jul 23:08:04 23:14:31 35° 268° (W) 23:21:00 435.675 MHz FM
MaSat-1 22 Jul 23:17:54 23:19:52 13° 100° (E) 23:21:57 437.345 MHz
Oscar 11 22 Jul 23:21:13 23:25:13 36° 264° (W) 23:29:14 145.825 FM, Beacon 2401.500 USB
FUNcube-1 22 Jul 23:23:17 23:27:37 69° 256° (WSW) 23:31:53 145.950 - 145.970 MHz USB
UOSAT-12 22 Jul 23:24:30 23:29:16 72° 21° (NNE) 23:34:01 437.025 FM, 437.400 FM
SO-50 23 Jul 00:07:26 00:11:17 25° 236° (SW) 00:15:09 436.795 FM
RS-15 23 Jul 00:09:08 00:19:51 64° 229° (SW) 00:30:52 29.354 - 29.394 USB, Beacon 29.352 USB
STRAND 1 23 Jul 00:26:31 00:28:54 13° 330° (NNW) 00:31:18 ?
MaSat-1 23 Jul 00:51:52 00:56:05 51° 123° (ESE) 01:00:55 437.345 MHz
FUNcube-1 23 Jul 01:02:28 01:04:51 14° 276° (W) 01:07:12 145.950 - 145.970 MHz USB
UOSAT-12 23 Jul 01:04:48 01:09:23 48° 224° (SW) 01:13:55 437.025 FM, 437.400 FM
OPAL 23 Jul 01:27:39 01:30:12 14° 27° (NNE) 01:32:45 ?
Oscar 19 23 Jul 01:59:01 02:01:27 13° 79° (E) 02:03:53 437.125 CW, 437.150 USB
RS-15 23 Jul 02:21:46 02:30:09 27° 256° (WSW) 02:38:45 29.354 - 29.394 USB, Beacon 29.352 USB
Oscar 16 23 Jul 02:25:25 02:29:13 20° 86° (E) 02:32:59 437.025 USB, Beacon 2401.1428
MaSat-1 23 Jul 02:29:05 02:33:33 54° 328° (NNW) 02:38:36 437.345 MHz
ITAMSAT 1 23 Jul 02:33:28 02:35:48 13° 79° (ENE) 02:38:07 435.822 SSB
AO-40 23 Jul 02:41:29 06:29:26 19° 182° (S) 11:32:35 Beacon 2401.320
UOSAT-12 23 Jul 02:46:06 02:48:35 14° 246° (WSW) 02:51:04 437.025 FM, 437.400 FM
AO-27 23 Jul 02:50:16 02:53:37 17° 83° (E) 02:56:57 436.795 MHz FM
Uribyol 2 23 Jul 02:53:53 02:57:26 18° 84° (E) 03:00:57 436.500 FM
JAS-1B 23 Jul 03:00:49 03:08:50 27° 76° (ENE) 03:16:21 435.800 - 435.900 CW/SSB
OPAL 23 Jul 03:03:29 03:07:55 34° 50° (NE) 03:12:22 ?
AO-Echo 23 Jul 03:06:07 03:10:11 22° 86° (E) 03:14:10 ?
Sapphire 23 Jul 03:12:42 03:16:41 21° 112° (ESE) 03:20:41 437.095 MHz 1200 baud AX-25 AFSK
Oscar 19 23 Jul 03:36:58 03:42:02 53° 101° (E) 03:47:05 437.125 CW, 437.150 USB
PCSat 23 Jul 03:45:38 03:50:26 33° 120° (ESE) 03:55:16 145.825 MHz
Oscar 10/S400 23 Jul 03:50:31 04:34:32 36° 191° (S) 09:57:49 145.825 - 145.975 CW/USB, Beacon 145.810 USB
TMSAT-1 23 Jul 03:55:01 03:58:51 20° 84° (E) 04:02:39 436.925 FM
Oscar 16 23 Jul 04:04:13 04:09:24 80° 107° (ESE) 04:14:35 437.025 USB, Beacon 2401.1428
MaSat-1 23 Jul 04:07:30 04:11:52 33° 352° (N) 04:16:35 437.345 MHz
ITAMSAT 1 23 Jul 04:11:28 04:16:35 52° 101° (E) 04:21:38 435.822 SSB
Gurwin Techsat 1B 23 Jul 04:14:46 04:19:31 31° 92° (E) 04:24:14 435.225 FM
AO-27 23 Jul 04:28:57 04:34:10 67° 105° (ESE) 04:39:21 436.795 MHz FM
ISS 23 Jul 04:29:21 04:30:15 11° 155° (SSE) 04:31:08 145.800 FM
Uribyol 2 23 Jul 04:32:39 04:37:52 72° 106° (ESE) 04:43:02 436.500 FM
OPAL 23 Jul 04:41:39 04:46:36 68° 251° (WSW) 04:51:35 ?
AO-Echo 23 Jul 04:44:26 04:49:45 87° 108° (ESE) 04:54:53 ?
AO-7 23 Jul 04:50:25 04:56:32 22° 81° (E) 05:02:36 29.400 - 29.500 MHz
JAS-1B 23 Jul 04:51:18 05:01:16 68° 102° (ESE) 05:10:22 435.800 - 435.900 CW/SSB
Sapphire 23 Jul 04:53:57 04:59:19 68° 135° (SE) 05:04:44 437.095 MHz 1200 baud AX-25 AFSK
Uosat F 23 Jul 04:57:50 05:01:06 17° 84° (E) 05:04:20 435.120 FM
Oscar 19 23 Jul 05:16:32 05:21:21 42° 303° (WNW) 05:26:11 437.125 CW, 437.150 USB
STRAND 1 23 Jul 05:16:57 05:20:44 21° 42° (NE) 05:24:31 ?
PCSat 23 Jul 05:28:02 05:33:29 86° 323° (NW) 05:38:58 145.825 MHz
TMSAT-1 23 Jul 05:34:20 05:39:41 76° 106° (ESE) 05:45:00 436.925 FM
Oscar 16 23 Jul 05:43:59 05:48:25 30° 309° (NW) 05:52:51 437.025 USB, Beacon 2401.1428
MaSat-1 23 Jul 05:45:46 05:50:24 36° 16° (NNE) 05:55:19 437.345 MHz
ITAMSAT 1 23 Jul 05:51:10 05:56:05 43° 303° (WNW) 06:00:58 435.822 SSB
Gurwin Techsat 1B 23 Jul 05:54:38 05:59:57 69° 294° (WNW) 06:05:14 435.225 FM
ISS 23 Jul 06:03:46 06:06:03 17° 175° (S) 06:08:20 145.800 FM
AO-27 23 Jul 06:08:47 06:13:29 35° 307° (NW) 06:18:09 436.795 MHz FM
Uribyol 2 23 Jul 06:12:29 06:17:05 33° 308° (NW) 06:21:38 436.500 FM
OPAL 23 Jul 06:23:19 06:26:27 17° 273° (W) 06:29:36 ?
AO-Echo 23 Jul 06:23:37 06:28:04 28° 311° (NW) 06:32:25 ?
Uosat F 23 Jul 06:35:48 06:40:52 69° 105° (ESE) 06:45:52 435.120 FM
Sapphire 23 Jul 06:37:39 06:43:00 56° 338° (NNW) 06:48:22 437.095 MHz 1200 baud AX-25 AFSK
JAS-1B 23 Jul 06:42:01 06:51:38 57° 307° (NW) 07:00:36 435.800 - 435.900 CW/SSB
AO-7 23 Jul 06:42:51 06:51:11 63° 106° (ESE) 06:59:25 29.400 - 29.500 MHz
Hamsat 23 Jul 06:44:36 06:47:03 15° 83° (E) 06:49:31 145.90 MHz
JAS-2 23 Jul 06:44:36 06:49:09 19° 76° (ENE) 06:53:20 435.800 - 435.900 CW/SSB, 435.910 FM
STRAND 1 23 Jul 06:54:05 06:59:11 64° 64° (ENE) 07:04:18 ?
Oscar 19 23 Jul 06:56:41 06:59:37 16° 325° (NW) 07:02:33 437.125 CW, 437.150 USB
PCSat 23 Jul 07:12:10 07:17:26 48° 348° (NNW) 07:22:43 145.825 MHz
TMSAT-1 23 Jul 07:14:38 07:19:18 32° 308° (NW) 07:23:56 436.925 FM
MaSat-1 23 Jul 07:23:23 07:28:33 68° 38° (NE) 07:33:54 437.345 MHz
Oscar 16 23 Jul 07:24:25 07:26:25 12° 332° (NNW) 07:28:25 437.025 USB, Beacon 2401.1428
ITAMSAT 1 23 Jul 07:31:25 07:34:31 16° 325° (NW) 07:37:36 435.822 SSB
KITSAT 1 23 Jul 07:32:02 07:36:50 17° 100° (E) 07:41:38 435.175 FM
Gurwin Techsat 1B 23 Jul 07:35:09 07:39:13 23° 316° (NW) 07:43:17 435.225 FM
ISS 23 Jul 07:40:00 07:41:55 15° 195° (SSW) 07:43:51 145.800 FM
AO-27 23 Jul 07:49:09 07:51:45 14° 330° (NNW) 07:54:21 436.795 MHz FM
Uribyol 2 23 Jul 07:52:53 07:55:15 13° 331° (NNW) 07:57:37 436.500 FM
AO-Echo 23 Jul 08:03:26 08:05:23 12° 334° (NNW) 08:07:18 ?
Uosat F 23 Jul 08:14:55 08:19:25 33° 307° (NW) 08:23:53 435.120 FM
Hamsat 23 Jul 08:19:33 08:23:49 72° 105° (ESE) 08:28:07 145.90 MHz
SO-67 23 Jul 08:21:06 08:23:39 19° 89° (E) 08:26:10 435.3500 MHz FM
Sapphire 23 Jul 08:22:03 08:27:16 45° 4° (N) 08:32:30 437.095 MHz 1200 baud AX-25 AFSK
JAS-2 23 Jul 08:29:01 08:35:48 65° 102° (ESE) 08:41:43 435.800 - 435.900 CW/SSB, 435.910 FM
JAS-1B 23 Jul 08:32:15 08:40:25 31° 332° (NNW) 08:48:20 435.800 - 435.900 CW/SSB
STRAND 1 23 Jul 08:34:07 08:38:46 33° 266° (W) 08:43:26 ?
AO-7 23 Jul 08:35:56 08:44:02 56° 311° (NW) 08:52:05 29.400 - 29.500 MHz
TMSAT-1 23 Jul 08:55:28 08:57:52 13° 332° (NNW) 09:00:16 436.925 FM
PCSat 23 Jul 08:56:28 09:01:45 48° 13° (NNE) 09:07:02 145.825 MHz
MaSat-1 23 Jul 09:00:56 09:05:53 43° 240° (WSW) 09:10:53 437.345 MHz
Gurwin Techsat 1B 23 Jul 09:16:32 09:17:33 11° 340° (NNW) 09:18:33 435.225 FM
KITSAT 1 23 Jul 09:22:44 09:30:25 50° 124° (SE) 09:38:08 435.175 FM
SO-67 23 Jul 09:53:38 09:57:07 67° 290° (WNW) 10:00:35 435.3500 MHz FM
Uosat F 23 Jul 09:54:41 09:56:58 13° 330° (NNW) 09:59:14 435.120 FM
Hamsat 23 Jul 09:55:59 09:59:30 26° 305° (NW) 10:03:03 145.90 MHz
Sapphire 23 Jul 10:06:00 10:11:26 66° 28° (NNE) 10:16:51 437.095 MHz 1200 baud AX-25 AFSK
JAS-2 23 Jul 10:14:17 10:20:42 44° 307° (NW) 10:26:24 435.800 - 435.900 CW/SSB, 435.910 FM
JAS-1B 23 Jul 10:21:06 10:28:16 24° 358° (N) 10:35:26 435.800 - 435.900 CW/SSB
HO-68 23 Jul 10:23:04 10:29:30 34° 92° (E) 10:35:52 435.675 MHz FM
AO-7 23 Jul 10:28:35 10:35:29 30° 336° (NNW) 10:42:21 29.400 - 29.500 MHz
MaSat-1 23 Jul 10:40:11 10:42:08 12° 261° (W) 10:44:05 437.345 MHz
PCSat 23 Jul 10:40:12 10:45:42 87° 37° (NE) 10:51:09 145.825 MHz
Oscar 16 23 Jul 10:40:28 10:40:58 10° 21° (NNE) 10:41:28 437.025 USB, Beacon 2401.1428
Oscar 11 23 Jul 10:58:26 11:01:57 23° 90° (E) 11:05:26 145.825 FM, Beacon 2401.500 USB
FUNcube-1 23 Jul 11:03:36 11:05:25 13° 82° (E) 11:07:14 145.950 - 145.970 MHz USB
Saudisat 1A 23 Jul 11:06:02 11:09:54 30° 128° (SE) 11:13:47 436.775 MHz
AO-27 23 Jul 11:06:27 11:06:41 10° 18° (NNE) 11:06:55 436.795 MHz FM
Uribyol 2 23 Jul 11:09:28 11:10:06 10° 20° (NNE) 11:10:43 436.500 FM
KITSAT 1 23 Jul 11:17:24 11:25:34 82° 330° (NNW) 11:33:43 435.175 FM
AO-Echo 23 Jul 11:17:36 11:18:40 11° 22° (NNE) 11:19:44 ?
SO-67 23 Jul 11:27:47 11:29:37 14° 310° (NW) 11:31:27 435.3500 MHz FM
Oscar 19 23 Jul 11:48:31 11:51:47 17° 38° (NE) 11:55:04 437.125 CW, 437.150 USB
Sapphire 23 Jul 11:49:36 11:54:51 50° 232° (SW) 12:00:05 437.095 MHz 1200 baud AX-25 AFSK
JAS-2 23 Jul 11:59:30 12:04:15 20° 333° (NNW) 12:08:40 435.800 - 435.900 CW/SSB, 435.910 FM
JAS-1B 23 Jul 12:08:19 12:16:04 30° 24° (NNE) 12:24:02 435.800 - 435.900 CW/SSB
HO-68 23 Jul 12:10:47 12:18:00 83° 295° (WNW) 12:25:09 435.675 MHz FM
TMSAT-1 23 Jul 12:12:24 12:13:30 11° 21° (NNE) 12:14:36 436.925 FM
Oscar 16 23 Jul 12:14:48 12:18:44 23° 45° (NE) 12:22:41 437.025 USB, Beacon 2401.1428
AO-7 23 Jul 12:19:48 12:26:07 25° 3° (N) 12:32:25 29.400 - 29.500 MHz
ITAMSAT 1 23 Jul 12:23:44 12:27:11 18° 38° (NE) 12:30:37 435.822 SSB
PCSat 23 Jul 12:23:55 12:28:44 33° 240° (WSW) 12:33:31 145.825 MHz
Gurwin Techsat 1B 23 Jul 12:30:45 12:33:17 14° 29° (NNE) 12:35:49 435.225 FM
Oscar 11 23 Jul 12:34:16 12:38:37 73° 291° (WNW) 12:42:56 145.825 FM, Beacon 2401.500 USB
FUNcube-1 23 Jul 12:38:35 12:42:45 62° 103° (ESE) 12:46:53 145.950 - 145.970 MHz USB
AO-27 23 Jul 12:40:40 12:44:32 21° 42° (NE) 12:48:24 436.795 MHz FM
Uribyol 2 23 Jul 12:44:01 12:47:57 22° 43° (NE) 12:51:54 436.500 FM
Saudisat 1A 23 Jul 12:44:42 12:49:09 89° 150° (SSE) 12:53:37 436.775 MHz
AO-Echo 23 Jul 12:51:42 12:55:50 24° 45° (NE) 12:59:57 ?
KITSAT 1 23 Jul 13:13:42 13:21:45 62° 358° (N) 13:29:48 435.175 FM
Oscar 19 23 Jul 13:25:16 13:30:11 49° 60° (ENE) 13:35:08 437.125 CW, 437.150 USB
Sapphire 23 Jul 13:34:17 13:37:10 15° 254° (WSW) 13:40:04 437.095 MHz 1200 baud AX-25 AFSK
JAS-2 23 Jul 13:43:32 13:47:00 14° 358° (N) 13:50:20 435.800 - 435.900 CW/SSB, 435.910 FM
TMSAT-1 23 Jul 13:47:42 13:51:48 23° 44° (NE) 13:55:55 436.925 FM
Oscar 16 23 Jul 13:52:20 13:57:27 73° 67° (ENE) 14:02:36 437.025 USB, Beacon 2401.1428
JAS-1B 23 Jul 13:55:51 14:04:41 52° 50° (NE) 14:14:08 435.800 - 435.900 CW/SSB
HO-68 23 Jul 13:58:47 14:05:04 35° 319° (NW) 14:11:20 435.675 MHz FM
ITAMSAT 1 23 Jul 14:00:42 14:05:44 51° 60° (ENE) 14:10:48 435.822 SSB
Gurwin Techsat 1B 23 Jul 14:07:13 14:11:56 33° 52° (NE) 14:16:40 435.225 FM
AO-7 23 Jul 14:09:40 14:16:52 34° 30° (NNE) 14:24:05 29.400 - 29.500 MHz
Oscar 11 23 Jul 14:11:10 14:14:13 19° 312° (NW) 14:17:16 145.825 FM, Beacon 2401.500 USB
FUNcube-1 23 Jul 14:15:22 14:18:57 28° 304° (NW) 14:22:30 145.950 - 145.970 MHz USB
AO-27 23 Jul 14:18:08 14:23:18 64° 64° (ENE) 14:28:30 436.795 MHz FM
Uribyol 2 23 Jul 14:21:34 14:26:45 69° 65° (ENE) 14:31:56 436.500 FM
Saudisat 1A 23 Jul 14:24:42 14:29:04 54° 354° (N) 14:33:26 436.775 MHz
AO-Echo 23 Jul 14:28:37 14:33:55 72° 67° (ENE) 14:39:15 ?
Uosat F 23 Jul 14:43:59 14:47:38 20° 42° (NE) 14:51:17 435.120 FM
